| time (UTC) | temp F | wind direction | speed MPH | gust MPH | rain 1hr in | rain 24hr in | rain mn in | humidity % | barometer mb |
| 20260507150003 | 57 | 346 | 2.0 | 7.0 | 0.00 | 0.14 | 0.02 | 60 | 1000.0 |
| 20260507144504 | 56 | 341 | 3.0 | 9.0 | 0.00 | 0.14 | 0.02 | 63 | 1000.0 |
| 20260507143119 | 58 | 339 | 1.0 | 10.0 | 0.00 | 0.14 | 0.02 | 65 | 1000.1 |
| 20260507141604 | 56 | 285 | 3.0 | 9.0 | 0.00 | 0.14 | 0.02 | 67 | 1000.0 |
| 20260507140058 | 56 | 318 | 2.0 | 9.0 | 0.00 | 0.14 | 0.02 | 68 | 1000.0 |
| 20260507134555 | 55 | 310 | 1.0 | 7.0 | 0.00 | 0.14 | 0.02 | 70 | 1000.0 |
| 20260507133055 | 57 | 331 | 1.0 | 5.0 | 0.00 | 0.14 | 0.02 | 68 | 999.9 |
| 20260507131601 | 55 | 343 | 2.0 | 8.0 | 0.00 | 0.14 | 0.02 | 70 | 1000.2 |
| 20260507130054 | 54 | 311 | 2.0 | 8.0 | 0.00 | 0.14 | 0.02 | 72 | 1000.2 |
| 20260507124600 | 53 | 339 | 1.0 | 7.0 | 0.00 | 0.14 | 0.02 | 77 | 1000.3 |
| 20260507123048 | 52 | 346 | 2.0 | 9.0 | 0.00 | 0.14 | 0.02 | 79 | 1000.4 |
| 20260507121546 | 51 | 316 | 2.0 | 6.0 | 0.00 | 0.14 | 0.02 | 81 | 1000.5 |
| 20260507120044 | 51 | 309 | 2.0 | 7.0 | 0.00 | 0.14 | 0.02 | 83 | 1000.3 |
| 20260507114602 | 50 | 332 | 0.0 | 1.0 | 0.00 | 0.14 | 0.02 | 86 | 1000.3 |
| 20260507113102 | 49 | 310 | 0.0 | 0.0 | 0.00 | 0.14 | 0.02 | 88 | 1000.1 |
| 20260507111545 | 49 | 308 | 0.0 | 2.0 | 0.00 | 0.14 | 0.02 | 89 | 1000.2 |
| 20260507110037 | 48 | 308 | 0.0 | 0.0 | 0.00 | 0.14 | 0.02 | 89 | 1000.1 |
| 20260507104541 | 48 | 306 | 0.0 | 3.0 | 0.00 | 0.14 | 0.02 | 90 | 1000.2 |
| 20260507103039 | 48 | 307 | 1.0 | 3.0 | 0.00 | 0.14 | 0.02 | 89 | 999.5 |
| 20260507101534 | 48 | 324 | 0.0 | 0.0 | 0.00 | 0.14 | 0.02 | 90 | 999.4 |
| 20260507100032 | 48 | 323 | 0.0 | 0.0 | 0.00 | 0.14 | 0.02 | 90 | 999.5 |
| 20260507094534 | 48 | 323 | 0.0 | 0.0 | 0.00 | 0.14 | 0.02 | 90 | 999.6 |
| 20260507093035 | 48 | 323 | 0.0 | 0.0 | 0.00 | 0.14 | 0.02 | 89 | 999.9 |
| 20260507091535 | 48 | 314 | 0.0 | 0.0 | 0.00 | 0.14 | 0.02 | 89 | 999.9 |
| 20260507090027 | 48 | 319 | 0.0 | 0.0 | 0.00 | 0.14 | 0.02 | 88 | 999.9 |
| 20260507084534 | 48 | 322 | 0.0 | 4.0 | 0.00 | 0.14 | 0.02 | 88 | 999.9 |
| 20260507083023 | 49 | 326 | 0.0 | 2.0 | 0.00 | 0.14 | 0.02 | 89 | 999.9 |
| 20260507081533 | 49 | 339 | 0.0 | 0.0 | 0.00 | 0.14 | 0.02 | 90 | 999.5 |
| 20260507080017 | 49 | 308 | 0.0 | 4.0 | 0.00 | 0.14 | 0.02 | 90 | 999.6 |
| 20260507074516 | 49 | 329 | 0.0 | 0.0 | 0.00 | 0.14 | 0.02 | 89 | 999.3 |
| 20260507073015 | 50 | 317 | 3.0 | 8.0 | 0.00 | 0.14 | 0.02 | 89 | 999.5 |
| 20260507071511 | 50 | 325 | 3.0 | 7.0 | 0.00 | 0.14 | 0.02 | 89 | 999.1 |
| 20260507070044 | 51 | 321 | 2.0 | 6.0 | 0.00 | 0.14 | 0.02 | 91 | 998.8 |
| 20260507064539 | 51 | 322 | 2.0 | 6.0 | 0.00 | 0.14 | 0.02 | 91 | 998.7 |
| 20260507063040 | 52 | 312 | 2.0 | 6.0 | 0.00 | 0.14 | 0.02 | 91 | 998.9 |
| 20260507061537 | 52 | 311 | 2.0 | 6.0 | 0.00 | 0.14 | 0.02 | 92 | 998.8 |
| 20260507060033 | 53 | 312 | 1.0 | 6.0 | 0.00 | 0.14 | 0.02 | 93 | 998.8 |
| 20260507054528 | 53 | 325 | 1.0 | 4.0 | 0.00 | 0.14 | 0.02 | 93 | 999.0 |
| 20260507053057 | 54 | 319 | 1.0 | 4.0 | 0.00 | 0.14 | 0.02 | 92 | 999.4 |
| 20260507051556 | 54 | 322 | 1.0 | 4.0 | 0.00 | 0.14 | 0.02 | 92 | 999.1 |
| 20260507050051 | 54 | 311 | 1.0 | 4.0 | 0.00 | 0.14 | 0.02 | 92 | 999.6 |
| 20260507044605 | 54 | 312 | 1.0 | 3.0 | 0.00 | 0.14 | 0.02 | 91 | 999.3 |
| 20260507043101 | 55 | 328 | 1.0 | 4.0 | 0.01 | 0.14 | 0.02 | 91 | 999.2 |
| 20260507041549 | 55 | 331 | 1.0 | 4.0 | 0.01 | 0.14 | 0.02 | 91 | 999.1 |
| 20260507040041 | 56 | 337 | 1.0 | 7.0 | 0.01 | 0.14 | 0.02 | 90 | 999.1 |
| 20260507034538 | 57 | 325 | 2.0 | 10.0 | 0.01 | 0.14 | 0.02 | 90 | 999.1 |
| 20260507033035 | 58 | 330 | 3.0 | 7.0 | 0.00 | 0.13 | 0.01 | 92 | 998.8 |
| 20260507031531 | 58 | 309 | 2.0 | 9.0 | 0.00 | 0.13 | 0.01 | 93 | 998.4 |
| 20260507030029 | 59 | 279 | 4.0 | 8.0 | 0.00 | 0.13 | 0.01 | 94 | 998.3 |
| 20260507024526 | 59 | 314 | 1.0 | 6.0 | 0.00 | 0.13 | 0.01 | 95 | 998.0 |
| 20260507023025 | 59 | 285 | 1.0 | 4.0 | 0.00 | 0.13 | 0.01 | 96 | 998.2 |
| 20260507021522 | 59 | 283 | 0.0 | 5.0 | 0.00 | 0.13 | 0.01 | 95 | 998.2 |
| 20260507020027 | 59 | 257 | 0.0 | 0.0 | 0.00 | 0.13 | 0.01 | 95 | 997.8 |
| 20260507014548 | 59 | 311 | 0.0 | 0.0 | 0.00 | 0.13 | 0.01 | 95 | 997.9 |
| 20260507013046 | 59 | 270 | 0.0 | 0.0 | 0.00 | 0.13 | 0.01 | 95 | 997.8 |
| 20260507011547 | 59 | 288 | 1.0 | 3.0 | 0.00 | 0.13 | 0.01 | 95 | 997.8 |
| 20260507010044 | 59 | 297 | 3.0 | 8.0 | 0.00 | 0.13 | 0.01 | 95 | 997.8 |
| 20260507004543 | 59 | 258 | 1.0 | 6.0 | 0.00 | 0.13 | 0.01 | 95 | 997.8 |
| 20260507003040 | 59 | 277 | 2.0 | 9.0 | 0.01 | 0.13 | 0.01 | 95 | 997.8 |
| 20260507001604 | 59 | 127 | 0.0 | 10.0 | 0.01 | 0.13 | 0.01 | 95 | 997.6 |
| 20260507000041 | 59 | 267 | 2.0 | 9.0 | 0.01 | 0.13 | 0.01 | 95 | 997.7 |
| 20260506234533 | 59 | 289 | 1.0 | 8.0 | 0.03 | 0.13 | 0.01 | 95 | 997.5 |
| 20260506233030 | 59 | 260 | 2.0 | 9.0 | 0.03 | 0.12 | 0.00 | 95 | 997.6 |
| 20260506231523 | 59 | 235 | 1.0 | 7.0 | 0.05 | 0.12 | 0.00 | 95 | 997.4 |
| 20260506230019 | 59 | 252 | 0.0 | 8.0 | 0.06 | 0.12 | 0.06 | 95 | 997.6 |
| 20260506224516 | 59 | 250 | 0.0 | 3.0 | 0.03 | 0.09 | 0.03 | 94 | 997.6 |
| 20260506223012 | 59 | 278 | 1.0 | 5.0 | 0.03 | 0.09 | 0.03 | 94 | 997.6 |
| 20260506221607 | 60 | 276 | 1.0 | 7.0 | 0.01 | 0.07 | 0.01 | 94 | 997.7 |